When you browse on this site, cookies collect data to enhance your experience and personalize the content and advertising you see.
Visit our Privacy Policy to learn more. By continuing to use the site, you agree to this use of cookies and data.
  • In United Kingdom
  • List of Countries
  • For 7 days
  • Water Temperature
  • Satellite Maps
  • Weather Map
  • Weather Widgets
  • user-avatar
    Login

    Hourly Weather Paganur

    Today, 24 May, Friday

    Time Temperature Precipitation Wind Pressure Humidity
    00:00 +4°C° 0 mm 4 mps 744 mmHg 89%
    01:00 +3°C° 0 mm 4 mps 745 mmHg 87%
    02:00 +1°C° 0 mm 4 mps 745 mmHg 86%
    03:00 +1°C° 0 mm 3 mps 746 mmHg 87%
    04:00 +1°C° 0 mm 4 mps 746 mmHg 81%
    05:00 +1°C° 0 mm 4 mps 747 mmHg 74%
    06:00 +3°C° 0 mm 4 mps 747 mmHg 68%
    07:00 +4°C° 0 mm 4 mps 748 mmHg 61%
    08:00 +5°C° 0 mm 4 mps 748 mmHg 53%
    09:00 +7°C° 0 mm 4 mps 749 mmHg 46%
    10:00 +8°C° 0 mm 4 mps 749 mmHg 44%
    11:00 +8°C° 0 mm 4 mps 749 mmHg 42%
    12:00 +10°C° 0 mm 4 mps 749 mmHg 41%
    13:00 +11°C° 0 mm 4 mps 749 mmHg 40%
    14:00 +11°C° 0 mm 4 mps 750 mmHg 40%
    15:00 +12°C° 0 mm 4 mps 750 mmHg 40%
    16:00 +11°C° 0 mm 4 mps 750 mmHg 42%
    17:00 +11°C° 0 mm 3 mps 750 mmHg 44%
    18:00 +10°C° 0 mm 3 mps 751 mmHg 47%
    19:00 +9°C° 0 mm 2 mps 751 mmHg 53%
    20:00 +7°C° 0 mm 2 mps 752 mmHg 59%
    21:00 +6°C° 0 mm 1 mps 752 mmHg 64%
    22:00 +5°C° 0 mm 1 mps 753 mmHg 65%
    23:00 +4°C° 0 mm 1 mps 753 mmHg 66%

    Tomorrow, 25 May, Saturday

    Time Temperature Precipitation Wind Pressure Humidity
    00:00 +4°C° 0 mm 1 mps 753 mmHg 66%
    01:00 +4°C° 0 mm 1 mps 754 mmHg 66%
    02:00 +3°C° 0 mm 1 mps 754 mmHg 66%
    03:00 +3°C° 0 mm 1 mps 754 mmHg 66%
    04:00 +4°C° 0 mm 1 mps 755 mmHg 64%
    05:00 +6°C° 0 mm 1 mps 755 mmHg 61%
    06:00 +6°C° 0 mm 2 mps 755 mmHg 58%
    07:00 +8°C° 0 mm 2 mps 755 mmHg 53%
    08:00 +10°C° 0 mm 2 mps 755 mmHg 47%
    09:00 +13°C° 0 mm 2 mps 755 mmHg 42%
    10:00 +13°C° 0 mm 3 mps 755 mmHg 41%
    11:00 +14°C° 0 mm 3 mps 755 mmHg 39%
    12:00 +16°C° 0 mm 3 mps 754 mmHg 38%
    13:00 +16°C° 0 mm 3 mps 754 mmHg 39%
    14:00 +15°C° 0 mm 4 mps 754 mmHg 41%
    15:00 +17°C° 0 mm 4 mps 753 mmHg 42%
    16:00 +15°C° 0 mm 4 mps 753 mmHg 46%
    17:00 +14°C° 0 mm 4 mps 753 mmHg 50%
    18:00 +14°C° 0 mm 4 mps 753 mmHg 54%
    19:00 +12°C° 0 mm 4 mps 752 mmHg 59%
    20:00 +10°C° 0 mm 4 mps 752 mmHg 64%
    21:00 +8°C° 0 mm 4 mps 752 mmHg 69%
    22:00 +7°C° 0 mm 4 mps 752 mmHg 69%
    23:00 +7°C° 0 mm 4 mps 752 mmHg 68%

    Day after tomorrow, 26 May, Sunday

    Time Temperature Precipitation Wind Pressure Humidity
    00:00 +6°C° 0 mm 4 mps 752 mmHg 68%
    01:00 +6°C° 0 mm 4 mps 751 mmHg 67%
    02:00 +6°C° 0 mm 4 mps 751 mmHg 67%
    03:00 +6°C° 0 mm 4 mps 750 mmHg 67%
    04:00 +7°C° 0 mm 5 mps 750 mmHg 65%
    05:00 +8°C° 0 mm 5 mps 750 mmHg 63%
    06:00 +9°C° 0 mm 6 mps 750 mmHg 60%
    07:00 +10°C° 0 mm 6 mps 749 mmHg 60%
    08:00 +11°C° 0 mm 6 mps 749 mmHg 59%
    09:00 +13°C° 0 mm 6 mps 749 mmHg 59%
    10:00 +13°C° 0.1 mm 6 mps 749 mmHg 60%
    11:00 +14°C° 0.1 mm 6 mps 748 mmHg 60%
    12:00 +14°C° 0.1 mm 6 mps 748 mmHg 61%
    13:00 +14°C° 0.6 mm 5 mps 748 mmHg 68%
    14:00 +14°C° 0.6 mm 4 mps 748 mmHg 75%
    15:00 +13°C° 0.6 mm 4 mps 748 mmHg 81%
    16:00 +14°C° 0.5 mm 4 mps 747 mmHg 84%
    17:00 +14°C° 0.5 mm 4 mps 747 mmHg 86%
    18:00 +14°C° 0.5 mm 4 mps 747 mmHg 88%
    19:00 +13°C° 0.2 mm 4 mps 747 mmHg 90%
    20:00 +13°C° 0.2 mm 3 mps 747 mmHg 91%
    21:00 +12°C° 0.2 mm 3 mps 747 mmHg 92%
    22:00 +12°C° 0.3 mm 3 mps 746 mmHg 92%
    23:00 +12°C° 0.3 mm 3 mps 746 mmHg 92%

    27 May, Monday

    Time Temperature Precipitation Wind Pressure Humidity
    00:00 +12°C° 0.3 mm 3 mps 746 mmHg 92%
    01:00 +12°C° 0 mm 3 mps 745 mmHg 93%
    02:00 +12°C° 0 mm 3 mps 745 mmHg 94%
    03:00 +11°C° 0 mm 3 mps 744 mmHg 95%
    04:00 +12°C° 0 mm 3 mps 744 mmHg 94%
    05:00 +12°C° 0 mm 3 mps 744 mmHg 93%
    06:00 +13°C° 0 mm 3 mps 743 mmHg 92%
    07:00 +14°C° 0 mm 3 mps 743 mmHg 90%
    08:00 +16°C° 0 mm 3 mps 743 mmHg 88%
    09:00 +17°C° 0 mm 3 mps 743 mmHg 86%
    10:00 +17°C° 0 mm 3 mps 743 mmHg 85%
    11:00 +18°C° 0 mm 3 mps 743 mmHg 83%
    12:00 +18°C° 0 mm 3 mps 743 mmHg 82%
    13:00 +19°C° 0.2 mm 4 mps 743 mmHg 82%
    14:00 +19°C° 0.2 mm 4 mps 743 mmHg 81%
    15:00 +19°C° 0.2 mm 4 mps 744 mmHg 81%
    16:00 +20°C° 0.2 mm 4 mps 744 mmHg 80%
    17:00 +20°C° 0.2 mm 3 mps 744 mmHg 78%
    18:00 +20°C° 0.2 mm 2 mps 745 mmHg 76%
    19:00 +18°C° 0 mm 3 mps 746 mmHg 79%
    20:00 +16°C° 0 mm 3 mps 746 mmHg 82%
    21:00 +13°C° 0 mm 3 mps 747 mmHg 84%
    22:00 +12°C° 0 mm 3 mps 748 mmHg 86%
    23:00 +12°C° 0 mm 2 mps 748 mmHg 87%

    28 May, Tuesday

    Time Temperature Precipitation Wind Pressure Humidity
    00:00 +10°C° 0 mm 2 mps 749 mmHg 89%
    01:00 +10°C° 0 mm 2 mps 749 mmHg 90%
    02:00 +9°C° 0 mm 2 mps 750 mmHg 92%
    03:00 +9°C° 0 mm 2 mps 750 mmHg 93%
    04:00 +10°C° 0 mm 2 mps 751 mmHg 88%
    05:00 +12°C° 0 mm 2 mps 751 mmHg 83%
    06:00 +13°C° 0 mm 2 mps 751 mmHg 78%
    07:00 +14°C° 0 mm 3 mps 752 mmHg 70%
    08:00 +17°C° 0 mm 3 mps 752 mmHg 62%
    09:00 +19°C° 0 mm 3 mps 752 mmHg 53%
    10:00 +20°C° 0 mm 4 mps 752 mmHg 52%
    11:00 +22°C° 0 mm 4 mps 752 mmHg 50%
    12:00 +23°C° 0 mm 5 mps 752 mmHg 49%
    13:00 +23°C° 0 mm 5 mps 752 mmHg 50%
    14:00 +25°C° 0 mm 4 mps 752 mmHg 51%
    15:00 +25°C° 0 mm 4 mps 752 mmHg 52%
    16:00 +23°C° 0.1 mm 4 mps 752 mmHg 57%
    17:00 +24°C° 0.1 mm 3 mps 751 mmHg 63%
    18:00 +22°C° 0.1 mm 3 mps 751 mmHg 68%
    19:00 +21°C° 0 mm 3 mps 751 mmHg 75%
    20:00 +19°C° 0 mm 3 mps 752 mmHg 82%
    21:00 +18°C° 0 mm 3 mps 752 mmHg 89%
    22:00 +17°C° 0 mm 3 mps 752 mmHg 90%
    23:00 +17°C° 0 mm 3 mps 752 mmHg 92%

    29 May, Wednesday

    Time Temperature Precipitation Wind Pressure Humidity
    00:00 +16°C° 0 mm 3 mps 752 mmHg 93%
    01:00 +16°C° 0 mm 3 mps 752 mmHg 94%
    02:00 +16°C° 0 mm 2 mps 752 mmHg 95%
    03:00 +16°C° 0 mm 2 mps 753 mmHg 96%
    04:00 +17°C° 0 mm 2 mps 753 mmHg 94%
    05:00 +18°C° 0 mm 2 mps 753 mmHg 91%
    06:00 +19°C° 0 mm 2 mps 753 mmHg 88%
    07:00 +20°C° 0.2 mm 2 mps 753 mmHg 84%
    08:00 +21°C° 0.2 mm 2 mps 753 mmHg 80%
    09:00 +24°C° 0.2 mm 2 mps 753 mmHg 75%
    10:00 +24°C° 0.8 mm 2 mps 753 mmHg 75%
    11:00 +25°C° 0.8 mm 3 mps 753 mmHg 74%
    12:00 +25°C° 0.8 mm 3 mps 753 mmHg 73%
    13:00 +25°C° 0.7 mm 3 mps 753 mmHg 74%
    14:00 +25°C° 0.7 mm 3 mps 753 mmHg 74%
    15:00 +25°C° 0.7 mm 3 mps 753 mmHg 74%
    16:00 +25°C° 0.4 mm 3 mps 753 mmHg 76%
    17:00 +25°C° 0.4 mm 2 mps 753 mmHg 78%
    18:00 +25°C° 0.4 mm 2 mps 753 mmHg 81%
    19:00 +23°C° 0.2 mm 1 mps 753 mmHg 84%
    20:00 +21°C° 0.2 mm 1 mps 753 mmHg 87%
    21:00 +18°C° 0.2 mm 0 mps 754 mmHg 90%
    22:00 +19°C° 0 mm 1 mps 754 mmHg 90%
    23:00 +19°C° 0 mm 1 mps 754 mmHg 91%
    Show more